Location: Unspecified
(0.0000°N, 1.0000°E)
Time: 23:38:35
(UTC+02:00)

N. Korean satellite - Visible Passes

Search period start: 20 September 2020 00:00
Search period end: 30 September 2020 00:00
Orbit: 455 x 503 km, 97.2° (Epoch: 20 September)

Date Brightness Start Highest point End Pass type
(mag) Time Alt. Az. Time Alt. Az. Time Alt. Az.
20 Sep 9.0 06:36:24 10° NE 06:39:20 24° E 06:42:14 10° SSE visible
22 Sep 6.5 07:17:04 10° N 07:20:32 58° WNW 07:23:59 10° SSW visible
23 Sep 7.8 06:51:13 10° NNE 06:54:36 44° E 06:57:57 10° S visible
24 Sep 9.7 06:26:23 10° ENE 06:28:39 16° E 06:30:54 10° SE visible
26 Sep 6.5 07:06:20 10° NNE 07:09:51 88° ESE 07:13:20 10° S visible
27 Sep 8.7 06:40:50 10° NE 06:43:54 29° E 06:46:56 10° SSE visible
28 Sep 10.1 06:17:01 10° E 06:17:56 11° E 06:18:51 10° ESE visible
29 Sep 6.7 07:21:43 10° N 07:25:04 46° WNW 07:28:24 10° SSW visible
